SCP
1 1 1 1 2 1 1 1 1 1 1 1 1 1 1 1 1 1 1 1 1 1 1 1 1 2 2 1 1 1 1 1 1 1 1 1 1 1 1 1 1 1 1
1 1 1 2 2 1 1 1 1 2 1 1 1 1 1 1 1 1 1 1 1 1 1 1 1 1 1 1 1 1 1 1 1 1 0 1 1 1 1 1 1 1 1
2 1 1 2 2 1 1 1 1 1 1 1 1 1 1 1 1 1 1 1 1 1 1 1 1 1 1 1 1 1 1 1 1 1 0 0 1 1 1 1 1 1 1
2 1 2 2 2 2 1 1 1 1 1 1 1 1 1 1 1 1 1 1 1 1 1 1 1 1 1 1 1 1 1 1 1 1 0 0 1 1 1 1 1 1 1
2 2 2 2 2 2 2 1 1 1 1 1 1 1 1 1 1 1 1 1 1 1 1 1 1 1 1 1 1 1 1 1 1 0 0 0 1 1 1 1 1 1 1
2 2 2 2 2 2 2 2 1 1 1 1 1 1 2 2 2 2 2 1 1 2 1 1 1 1 1 1 1 1 1 1 0 0 0 0 1 1 1 1 1 1 1
2 2 2 2 2 2 2 2 1 1 1 1 1 1 2 2 2 2 2 1 1 1 1 1 1 1 1 1 1 1 0 0 0 0 0 0 1 1 1 1 1 1 1
2 2 2 2 2 2 2 2 2 1 1 1 1 2 2 2 2 2 1 1 1 1 1 1 1 1 1 1 1 1 0 0 0 0 0 0 1 1 1 1 1 1 1
3 2 2 2 2 2 1 1 1 1 1 1 1 2 2 2 2 2 1 1 1 1 1 1 1 1 1 1 1 0 0 0 0 0 0 0 0 1 1 1 1 1 1
3 3 2 2 2 1 1 1 1 1 1 1 1 1 1 1 1 1 1 1 1 1 1 1 1 1 1 1 0 0 0 0 0 0 0 0 1 1 1 1 1 1 1
3 3 2 2 2 1 1 1 1 1 1 1 1 1 1 1 1 1 1 1 1 1 1 1 1 1 1 0 0 0 0 0 0 1 1 1 1 1 1 1 1 1 1
3 3 2 2 2 1 1 1 1 2 2 2 1 1 1 1 1 1 1 1 0 0 0 1 1 0 0 0 0 0 0 0 0 0 1 1 1 1 1 1 1 1 1
4 3 2 2 2 1 1 1 2 2 2 2 1 1 1 1 1 0 0 0 0 0 0 0 0 0 0 0 0 0 0 0 0 0 0 1 1 1 1 1 1 1 1
4 4 3 2 2 2 2 2 2 2 2 2 1 1 1 1 1 0 0 0 0 0 0 0 0 0 0 0 0 0 0 0 0 0 0 1 1 1 1 1 1 1 1
5 4 3 2 2 2 2 2 2 2 2 2 1 1 1 1 1 0 0 0 0 0 0 0 0 0 0 0 0 0 0 0 0 0 0 0 1 1 1 2 1 1 1
5 4 3 2 2 2 2 2 2 2 2 2 1 1 1 1 1 1 0 0 0 0 0 0 0 0 0 0 0 0 0 0 0 0 1 1 1 1 1 2 1 1 1
5 4 3 2 1 1 2 2 2 2 2 2 1 1 1 1 1 1 1 0 0 0 0 0 0 0 0 0 0 0 0 0 0 0 1 1 1 1 1 2 1 1 1
4 4 2 2 1 1 1 2 2 2 2 1 1 1 1 1 1 1 0 0 0 0 0 0 0 0 0 0 0 0 0 0 0 0 1 1 1 1 1 1 1 1 1
4 3 2 1 1 1 1 1 2 2 1 1 1 1 1 1 1 1 0 0 0 0 0 0 0 0 0 0 0 0 0 0 0 0 1 1 2 2 2 1 1 1 1
3 3 2 1 1 1 1 1 1 1 1 1 0 1 1 1 1 1 0 0 0 0 0 0 0 0 0 0 0 0 0 0 0 0 1 1 2 2 2 1 1 0 0
2 2 2 1 1 1 0 1 1 1 1 0 0 0 0 0 0 0 0 0 0 0 0 0 0 0 0 0 0 0 0 0 0 0 1 1 2 3 2 1 0 0 0
1 2 1 0 0 0 0 1 1 1 1 0 0 0 0 0 0 0 0 0 0 0 0 0 0 0 0 0 0 0 0 0 0 0 0 1 2 3 2 1 0 0 0
1 1 1 0 0 0 0 0 1 1 1 1 0 0 0 0 0 0 0 0 0 0 0 0 0 0 0 0 0 0 0 0 0 0 0 1 2 2 2 1 0 0 0
1 1 1 0 0 0 0 0 1 1 1 1 0 0 0 0 0 0 0 0 0 0 0 0 0 0 0 0 0 0 0 0 0 0 0 1 1 2 1 1 0 0 0
1 1 0 0 0 0 0 0 0 1 1 0 0 0 0 0 0 0 0 0 0 0 0 0 0 0 0 0 0 0 0 0 0 0 0 0 1 2 1 1 0 0 0
1 1 0 0 0 0 0 0 0 1 1 0 0 0 0 0 0 0 0 0 0 0 0 0 0 0 0 0 0 0 0 0 0 0 0 0 1 1 1 0 0 0 0
Wind_Speed
4 6 7 9 9 9 9 9 9 9 9 10 10 10 10 11 12 13 13 13 13 13 14 14 15 15 15 16 16 16 16 16 17 17 17 17 17 17 17 16 14 11 17
6 7 8 9 9 9 9 9 9 9 9 10 10 10 10 11 11 12 13 13 14 14 14 14 15 15 16 16 16 15 15 15 14 14 14 14 15 17 17 17 15 11 17
7 7 7 9 9 9 9 9 9 9 9 9 10 10 10 11 11 12 12 13 13 14 15 15 14 15 15 15 15 14 14 13 12 12 11 8 11 16 17 17 16 17 17
6 6 7 9 9 9 10 9 9 9 9 9 10 10 11 11 11 12 12 13 13 14 15 15 14 14 14 14 14 13 13 13 12 11 8 8 8 15 16 17 17 17 17
6 6 7 9 9 9 10 9 9 9 9 9 10 10 10 11 12 12 13 13 13 14 15 14 14 14 13 13 13 13 13 12 12 10 8 8 7 14 16 16 16 16 16
6 6 7 9 9 9 9 9 9 9 9 9 9 10 10 11 12 12 13 13 13 14 14 14 14 14 13 13 13 12 12 12 9 7 8 8 7 13 15 15 15 16 16
6 5 7 8 9 9 9 9 8 9 9 9 9 10 10 11 11 12 12 13 13 13 13 13 13 13 13 13 13 12 12 11 8 7 7 7 8 14 15 15 15 15 15
6 6 6 7 8 8 9 9 9 8 8 9 8 9 10 10 11 12 12 12 13 13 13 13 13 13 13 13 13 13 13 11 9 9 7 7 11 14 15 15 15 15 15
6 5 5 5 5 7 8 8 9 9 9 9 9 10 10 11 11 11 12 12 12 13 13 12 12 13 13 13 13 12 12 12 8 6 8 6 11 13 14 14 14 14 15
5 5 5 4 4 4 5 7 8 9 9 9 10 10 10 10 10 11 11 12 12 12 11 12 12 12 12 12 12 12 11 9 7 7 5 7 12 13 13 13 13 14 14
4 4 4 4 4 4 4 5 6 7 8 8 7 9 8 5 6 7 10 11 11 11 11 11 10 11 10 10 11 11 8 5 6 5 5 10 12 12 13 13 13 13 13
3 3 3 3 3 3 3 3 3 3 4 4 4 4 4 4 4 6 9 11 11 10 9 9 9 8 6 4 6 8 4 6 5 5 6 12 12 12 12 13 13 13 13
3 3 2 3 3 3 3 2 2 2 2 3 3 4 4 4 4 4 3 4 5 6 4 5 5 3 4 4 4 4 5 5 4 4 6 11 12 12 12 13 13 13 13
3 3 3 2 3 3 3 2 2 2 2 2 2 4 3 3 3 3 2 3 2 2 3 3 2 4 5 5 5 5 6 4 4 4 6 12 12 12 12 12 12 13 13
3 3 2 2 2 3 3 2 2 2 2 2 2 3 4 3 3 3 2 3 3 3 2 3 3 4 5 5 5 6 6 6 5 4 4 11 12 12 12 12 12 12 12
2 2 2 2 2 2 2 2 2 2 2 2 2 3 3 3 3 3 3 3 3 2 2 3 3 3 3 4 5 5 5 5 5 5 4 6 11 11 11 11 11 11 11
2 2 2 2 2 2 2 2 2 2 2 2 2 3 3 3 3 3 3 3 2 2 3 3 3 3 3 4 4 5 4 5 4 4 4 4 4 9 10 11 10 10 10
3 2 2 2 2 2 2 2 2 2 2 1 2 2 3 3 4 3 3 2 3 2 2 3 3 3 3 3 3 3 3 3 4 4 4 4 3 4 7 10 10 9 9
3 3 3 2 2 2 2 2 2 2 2 1 1 2 2 3 3 3 3 2 3 3 2 3 2 2 3 3 3 2 2 2 3 4 4 4 4 4 3 6 9 9 8
3 3 3 3 3 2 2 1 2 2 2 1 1 1 2 2 3 3 3 3 3 3 2 3 3 2 3 2 3 3 2 2 2 2 3 3 3 4 4 4 3 5 8
3 3 3 3 2 2 1 1 1 1 1 1 1 2 2 2 3 3 3 3 3 3 3 4 3 3 2 2 2 2 2 2 2 1 2 2 2 2 3 3 3 3 3
2 2 2 2 1 1 1 1 0 1 1 1 1 1 2 2 3 3 4 3 3 3 4 4 4 2 1 2 2 2 1 1 1 0 1 1 2 2 2 3 3 3 2
2 2 1 1 1 1 1 1 1 1 1 1 0 0 1 2 3 3 4 4 3 3 4 4 4 3 3 2 1 3 3 2 0 1 0 1 1 1 1 1 2 2 2
3 2 1 1 1 1 0 0 1 1 1 1 1 1 1 2 3 3 4 4 4 3 4 4 3 3 4 3 1 1 1 3 3 1 1 0 1 1 1 1 1 1 0
2 2 1 1 1 1 1 1 1 1 1 1 1 2 2 2 2 3 3 3 4 3 4 4 3 3 4 4 3 1 1 1 2 3 2 2 1 1 1 1 1 1 1
3 2 2 2 2 2 2 2 1 2 2 2 2 2 2 2 2 3 4 3 3 3 4 4 4 4 4 4 3 2 2 2 3 2 2 2 2 2 1 1 1 1 1
Wind_Direction
107 124 141 128 119 112 107 102 97 92 89 86 82 78 75 77 77 75 73 72 73 75 75 75 74 73 72 71 70 70 69 67 67 68 68 70 73 75 75 74 75 77 81
116 126 138 125 119 113 107 101 97 94 90 86 85 82 80 81 79 77 75 73 74 75 74 72 73 74 73 71 71 71 70 68 67 66 68 66 68 72 73 71 74 79 80
110 124 136 119 116 113 108 104 99 96 93 90 87 85 85 86 83 80 77 74 74 75 73 70 71 73 71 70 69 69 67 64 61 63 67 68 68 70 72 72 74 76 78
109 120 129 118 114 113 110 106 103 100 97 94 90 87 87 88 86 84 81 77 75 76 73 71 70 71 71 68 66 65 62 58 57 63 65 66 68 73 74 74 73 74 76
97 107 117 112 111 113 114 110 106 104 101 98 95 91 90 89 87 84 81 79 76 76 74 72 71 71 71 69 65 63 58 54 57 61 65 66 65 75 77 76 75 76 76
92 97 113 108 106 111 116 115 110 107 105 101 98 95 92 91 89 86 83 79 76 75 74 73 72 70 70 68 66 62 57 52 54 59 62 65 65 75 79 79 77 77 77
91 93 113 109 107 105 108 111 113 111 108 104 102 101 96 93 90 87 85 82 79 76 75 73 73 69 68 66 63 60 57 52 58 60 61 61 68 76 79 80 80 79 78
89 91 109 107 103 103 101 100 102 106 107 104 103 99 97 94 93 90 87 84 81 78 75 72 72 68 67 64 59 56 52 52 60 62 61 60 69 75 76 77 78 78 78
83 86 96 103 100 96 94 94 95 93 94 94 92 93 90 88 89 90 87 84 81 77 75 72 72 70 66 61 56 55 54 50 54 56 62 60 70 75 76 77 77 78 78
76 81 92 96 93 95 93 90 89 90 92 92 88 87 87 86 85 85 84 83 80 76 74 70 71 69 65 59 52 50 51 47 56 52 51 62 71 75 76 76 77 79 78
77 75 82 90 88 87 95 95 89 91 93 94 92 91 89 86 84 79 81 83 82 77 73 70 72 69 62 55 50 48 47 56 58 52 47 61 72 76 77 76 77 80 79
112 99 89 97 98 96 95 96 95 96 102 97 94 92 87 83 85 86 80 83 81 76 72 70 69 63 53 45 42 41 49 56 57 52 52 59 68 76 78 78 79 79 78
130 117 98 99 105 104 98 95 92 96 97 100 101 95 93 91 94 90 87 82 80 75 66 64 54 43 48 47 46 48 48 56 56 52 50 59 65 73 78 79 81 80 80
107 110 100 105 112 110 106 106 104 99 95 92 103 98 95 93 94 103 99 94 84 72 65 59 54 49 49 48 50 54 53 56 55 53 53 59 64 68 74 77 79 78 77
100 87 76 75 106 115 112 116 106 105 103 101 95 97 100 106 109 100 96 91 81 77 73 63 59 61 56 48 50 53 57 61 59 56 55 59 61 64 67 73 76 77 75
101 95 84 84 73 100 106 121 118 114 107 107 103 101 102 108 110 103 96 91 81 80 78 74 66 63 61 56 54 52 53 57 58 56 58 57 59 60 63 67 71 73 74
86 98 93 89 72 76 104 115 117 119 120 125 118 116 114 113 119 116 111 102 97 86 82 81 75 69 70 63 56 54 54 56 60 57 54 56 55 57 60 62 65 67 69
55 70 68 69 70 62 81 106 112 108 106 116 118 118 122 121 122 117 114 111 108 99 95 98 93 86 77 71 62 56 57 56 62 63 61 58 56 55 55 59 61 63 64
61 60 52 59 73 65 57 104 105 105 99 97 105 109 117 120 122 122 124 122 118 111 105 108 94 101 95 84 74 65 61 58 57 67 65 60 62 62 57 55 54 57 61
60 59 51 45 46 58 59 93 97 89 92 100 101 111 122 129 129 128 129 133 129 123 117 113 106 96 107 108 89 64 54 63 56 60 70 63 62 65 63 58 48 48 53
57 56 54 47 34 44 52 91 139 152 137 120 122 129 135 140 140 135 132 140 139 136 136 135 129 117 106 111 95 65 31 56 77 59 71 81 74 70 67 63 57 52 39
58 56 56 54 37 20 347 339 211 161 155 148 132 138 150 152 155 150 148 152 154 142 140 144 141 136 143 153 141 134 110 11 10 79 90 106 96 75 70 62 61 59 45
42 38 25 9 2 1 360 16 55 69 92 75 61 184 186 177 169 167 160 156 163 163 160 162 159 155 166 194 161 146 156 186 188 332 216 124 119 104 86 84 78 61 46
17 15 22 11 350 347 10 65 182 176 195 221 199 204 213 193 182 170 163 159 164 168 163 169 170 171 163 180 202 201 165 147 155 161 305 262 125 120 141 100 101 106 81
8 4 5 16 354 0 349 304 226 191 208 181 184 187 207 203 183 176 171 165 169 173 172 172 174 181 181 180 181 182 183 150 163 158 205 234 258 235 193 185 170 188 193
17 15 13 12 2 354 345 342 308 207 195 189 193 196 209 215 197 186 182 176 175 179 181 183 181 189 196 187 182 178 171 174 183 166 182 215 227 246 243 221 204 203 199